Year,Month,Day,Hour,Minute,Value (Times are PST for insolation in W/m^2)
2008,08,10,00,00,0.00
2008,08,10,00,01,0.00
2008,08,10,00,02,0.00
2008,08,10,00,03,0.00
2008,08,10,00,04,0.00
2008,08,10,00,05,0.00
2008,08,10,00,06,0.00
2008,08,10,00,07,0.00
2008,08,10,00,08,0.00
2008,08,10,00,09,0.00
2008,08,10,00,10,0.00
2008,08,10,00,11,0.00
2008,08,10,00,12,0.00
2008,08,10,01,02,0.00
2008,08,10,01,03,0.00
2008,08,10,01,04,0.00
2008,08,10,01,05,0.00
2008,08,10,01,06,0.00
2008,08,10,01,07,0.00
2008,08,10,01,08,0.00
2008,08,10,01,09,0.00
2008,08,10,01,10,0.00
2008,08,10,01,11,0.00
2008,08,10,01,12,0.00
2008,08,10,01,13,0.00
2008,08,10,01,14,0.00
2008,08,10,01,15,0.00
2008,08,10,01,16,0.00
2008,08,10,01,17,0.00
2008,08,10,01,18,0.00
2008,08,10,01,19,0.00
2008,08,10,01,20,0.00
2008,08,10,01,21,0.00
2008,08,10,01,22,0.00
2008,08,10,01,23,0.00
2008,08,10,01,24,0.00
2008,08,10,01,25,0.00
2008,08,10,01,26,0.00
2008,08,10,01,27,0.00
2008,08,10,01,28,0.00
2008,08,10,01,29,0.00
2008,08,10,01,30,0.00
2008,08,10,01,31,0.00
2008,08,10,01,32,0.00
2008,08,10,01,33,0.00
2008,08,10,01,34,0.00
2008,08,10,01,35,0.00
2008,08,10,01,36,0.00
2008,08,10,01,37,0.00
2008,08,10,01,38,0.00
2008,08,10,01,39,0.00
2008,08,10,01,40,0.00
2008,08,10,01,41,0.00
2008,08,10,01,42,0.00
2008,08,10,01,43,0.00
2008,08,10,01,44,0.00
2008,08,10,01,45,0.00
2008,08,10,01,46,0.00
2008,08,10,01,47,0.00
2008,08,10,01,48,0.00
2008,08,10,01,49,0.00
2008,08,10,01,50,0.00
2008,08,10,01,51,0.00
2008,08,10,01,52,0.00
2008,08,10,01,53,0.00
2008,08,10,01,54,0.00
2008,08,10,01,55,0.00
2008,08,10,01,56,0.00
2008,08,10,01,57,0.00
2008,08,10,01,58,0.00
2008,08,10,01,59,0.00
2008,08,10,02,00,0.00
2008,08,10,02,01,0.00
2008,08,10,02,02,0.00
2008,08,10,02,03,0.00
2008,08,10,02,04,0.00
2008,08,10,02,05,0.00
2008,08,10,02,06,0.00
2008,08,10,02,07,0.00
2008,08,10,02,08,0.00
2008,08,10,02,09,0.00
2008,08,10,02,10,0.00
2008,08,10,02,11,0.00
2008,08,10,02,12,0.00
2008,08,10,02,13,0.00
2008,08,10,02,14,0.00
2008,08,10,02,15,0.00
2008,08,10,02,16,0.00
2008,08,10,02,17,0.00
2008,08,10,02,18,0.00
2008,08,10,02,19,0.00
2008,08,10,02,20,0.00
2008,08,10,02,21,0.00
2008,08,10,02,22,0.00
2008,08,10,02,23,0.00
2008,08,10,02,24,0.00
2008,08,10,02,25,0.00
2008,08,10,02,26,0.00
2008,08,10,02,27,0.00
2008,08,10,02,28,0.00
2008,08,10,02,29,0.00
2008,08,10,02,30,0.00
2008,08,10,02,31,0.00
2008,08,10,02,32,0.00
2008,08,10,02,33,0.00
2008,08,10,02,34,0.00
2008,08,10,02,35,0.00
2008,08,10,02,36,0.00
2008,08,10,02,37,0.00
2008,08,10,02,38,0.00
2008,08,10,02,39,0.00
2008,08,10,02,40,0.00
2008,08,10,02,41,0.00
2008,08,10,02,42,0.00
2008,08,10,02,43,0.00
2008,08,10,02,44,0.00
2008,08,10,02,45,0.00
2008,08,10,02,46,0.00
2008,08,10,02,47,0.00
2008,08,10,02,48,0.00
2008,08,10,02,49,0.00
2008,08,10,02,50,0.00
2008,08,10,02,51,0.00
2008,08,10,02,52,0.00
2008,08,10,02,53,0.00
2008,08,10,02,54,0.00
2008,08,10,02,55,0.00
2008,08,10,02,56,0.00
2008,08,10,02,57,0.00
2008,08,10,02,58,0.00
2008,08,10,02,59,0.00
2008,08,10,03,00,0.00
2008,08,10,03,01,0.00
2008,08,10,03,02,0.00
2008,08,10,03,03,0.00
2008,08,10,03,04,0.00
2008,08,10,03,05,0.00
2008,08,10,03,06,0.00
2008,08,10,03,07,0.00
2008,08,10,03,08,0.00
2008,08,10,03,09,0.00
2008,08,10,03,10,0.00
2008,08,10,03,11,0.00
2008,08,10,03,12,0.00
2008,08,10,03,13,0.00
2008,08,10,03,14,0.00
2008,08,10,03,15,0.00
2008,08,10,03,16,0.00
2008,08,10,03,17,0.00
2008,08,10,03,18,0.00
2008,08,10,03,19,0.00
2008,08,10,03,20,0.00
2008,08,10,03,21,0.00
2008,08,10,03,22,0.00
2008,08,10,03,23,0.00
2008,08,10,03,24,0.00
2008,08,10,03,25,0.00
2008,08,10,03,26,0.00
2008,08,10,03,27,0.00
2008,08,10,03,28,0.00
2008,08,10,03,29,0.00
2008,08,10,03,30,0.00
2008,08,10,03,31,0.00
2008,08,10,03,32,0.00
2008,08,10,03,33,0.00
2008,08,10,03,34,0.00
2008,08,10,03,35,0.00
2008,08,10,03,36,0.00
2008,08,10,03,37,0.00
2008,08,10,03,38,0.00
2008,08,10,03,39,0.00
2008,08,10,03,40,0.00
2008,08,10,03,41,0.00
2008,08,10,03,42,0.00
2008,08,10,03,43,0.00
2008,08,10,03,44,0.00
2008,08,10,03,45,0.00
2008,08,10,03,46,0.00
2008,08,10,03,47,0.00
2008,08,10,03,48,0.00
2008,08,10,03,49,0.00
2008,08,10,03,50,0.00
2008,08,10,03,51,0.00
2008,08,10,03,52,0.00
2008,08,10,03,53,0.00
2008,08,10,03,54,0.00
2008,08,10,03,55,0.00
2008,08,10,03,56,0.00
2008,08,10,03,57,0.00
2008,08,10,03,58,0.00
2008,08,10,03,59,0.00
2008,08,10,04,00,0.00
2008,08,10,04,01,0.00
2008,08,10,04,02,0.00
2008,08,10,04,03,0.00
2008,08,10,04,04,0.00
2008,08,10,04,05,0.00
2008,08,10,04,06,0.00
2008,08,10,04,07,0.00
2008,08,10,04,08,0.00
2008,08,10,04,09,0.00
2008,08,10,04,10,0.00
2008,08,10,04,11,0.00
2008,08,10,04,12,0.00
2008,08,10,04,13,0.00
2008,08,10,04,14,0.00
2008,08,10,04,15,0.00
2008,08,10,04,16,0.00
2008,08,10,04,17,0.00
2008,08,10,04,18,0.00
2008,08,10,04,19,0.00
2008,08,10,04,20,0.00
2008,08,10,04,21,0.00
2008,08,10,04,22,0.00
2008,08,10,04,23,0.00
2008,08,10,04,24,0.00
2008,08,10,04,25,0.00
2008,08,10,04,26,0.00
2008,08,10,04,27,0.00
2008,08,10,04,28,0.00
2008,08,10,04,29,0.00
2008,08,10,04,30,0.00
2008,08,10,04,31,0.00
2008,08,10,04,32,0.00
2008,08,10,04,33,0.00
2008,08,10,04,34,0.00
2008,08,10,04,35,0.00
2008,08,10,04,36,0.00
2008,08,10,04,37,0.00
2008,08,10,04,38,0.00
2008,08,10,04,39,0.00
2008,08,10,04,40,0.00
2008,08,10,04,41,0.00
2008,08,10,04,42,0.00
2008,08,10,04,43,0.00
2008,08,10,04,44,0.00
2008,08,10,04,45,0.00
2008,08,10,04,46,0.00
2008,08,10,04,47,0.00
2008,08,10,04,48,0.00
2008,08,10,04,49,0.00
2008,08,10,04,50,0.00
2008,08,10,04,51,0.00
2008,08,10,04,52,0.00
2008,08,10,04,53,0.00
2008,08,10,04,54,0.00
2008,08,10,04,55,0.00
2008,08,10,04,56,0.00
2008,08,10,04,57,0.00
2008,08,10,04,58,0.00
2008,08,10,04,59,0.00
2008,08,10,05,00,0.00
2008,08,10,05,01,0.00
2008,08,10,05,02,0.00
2008,08,10,05,03,0.00
2008,08,10,05,04,0.00
2008,08,10,05,05,0.00
2008,08,10,05,06,0.00
2008,08,10,05,07,0.00
2008,08,10,05,08,0.00
2008,08,10,05,09,0.00
2008,08,10,05,10,0.00
2008,08,10,05,11,0.00
2008,08,10,05,12,0.00
2008,08,10,05,13,0.00
2008,08,10,05,14,0.00
2008,08,10,05,15,0.00
2008,08,10,05,16,0.00
2008,08,10,05,17,0.00
2008,08,10,05,18,0.00
2008,08,10,05,19,0.00
2008,08,10,05,20,0.00
2008,08,10,05,21,0.00
2008,08,10,05,22,0.00
2008,08,10,05,23,0.00
2008,08,10,05,24,0.00
2008,08,10,05,25,0.00
2008,08,10,05,26,0.00
2008,08,10,05,27,0.00
2008,08,10,05,28,0.00
2008,08,10,05,29,0.00
2008,08,10,05,30,0.00
2008,08,10,05,31,0.00
2008,08,10,05,32,0.00
2008,08,10,05,33,0.00
2008,08,10,05,34,0.00
2008,08,10,05,35,0.00
2008,08,10,05,36,0.00
2008,08,10,05,37,0.00
2008,08,10,05,38,0.00
2008,08,10,05,39,0.00
2008,08,10,05,40,0.00
2008,08,10,05,41,0.00
2008,08,10,05,42,0.00
2008,08,10,05,43,0.00
2008,08,10,05,44,0.00
2008,08,10,05,45,0.00
2008,08,10,05,46,0.00
2008,08,10,05,47,0.00
2008,08,10,05,48,0.00
2008,08,10,05,49,0.00
2008,08,10,05,50,0.00
2008,08,10,05,51,0.00
2008,08,10,05,52,0.00
2008,08,10,05,53,0.00
2008,08,10,05,54,0.00
2008,08,10,05,55,0.00
2008,08,10,05,56,0.00
2008,08,10,05,57,0.00
2008,08,10,05,58,0.00
2008,08,10,05,59,0.00
2008,08,10,06,00,0.00
2008,08,10,06,01,0.00
2008,08,10,06,02,0.00
2008,08,10,06,03,0.00
2008,08,10,06,04,0.00
2008,08,10,06,05,0.00
2008,08,10,06,06,0.00
2008,08,10,06,07,0.00
2008,08,10,06,08,0.00
2008,08,10,06,09,0.00
2008,08,10,06,10,0.00
2008,08,10,06,11,0.00
2008,08,10,06,12,0.00
2008,08,10,06,13,0.00
2008,08,10,06,14,0.00
2008,08,10,06,15,0.00
2008,08,10,06,16,4.70
2008,08,10,06,17,5.00
2008,08,10,06,18,5.00
2008,08,10,06,19,6.90
2008,08,10,06,20,8.90
2008,08,10,06,21,9.00
2008,08,10,06,22,10.90
2008,08,10,06,23,11.90
2008,08,10,06,24,12.00
2008,08,10,06,25,13.90
2008,08,10,06,26,14.00
2008,08,10,06,27,14.00
2008,08,10,06,28,15.90
2008,08,10,06,29,17.90
2008,08,10,06,30,18.90
2008,08,10,06,31,20.90
2008,08,10,06,32,21.00
2008,08,10,06,33,21.00
2008,08,10,06,34,22.90
2008,08,10,06,35,23.00
2008,08,10,06,36,24.90
2008,08,10,06,37,25.00
2008,08,10,06,38,25.90
2008,08,10,06,39,27.60
2008,08,10,06,40,28.00
2008,08,10,06,41,34.60
2008,08,10,06,42,38.80
2008,08,10,06,43,39.90
2008,08,10,06,44,40.00
2008,08,10,06,45,41.60
2008,08,10,06,46,40.10
2008,08,10,06,47,39.10
2008,08,10,06,48,35.20
2008,08,10,06,49,35.00
2008,08,10,06,50,35.00
2008,08,10,06,51,31.00
2008,08,10,06,52,25.30
2008,08,10,06,53,23.10
2008,08,10,06,54,23.00
2008,08,10,06,55,24.60
2008,08,10,06,56,25.90
2008,08,10,06,57,25.10
2008,08,10,06,58,23.10
2008,08,10,06,59,23.00
2008,08,10,07,00,23.00
2008,08,10,07,01,23.00
2008,08,10,07,02,23.00
2008,08,10,07,03,23.00
2008,08,10,07,04,23.00
2008,08,10,07,05,21.10
2008,08,10,07,06,19.10
2008,08,10,07,07,16.60
2008,08,10,07,08,16.00
2008,08,10,07,09,16.00
2008,08,10,07,10,12.80
2008,08,10,07,11,12.00
2008,08,10,07,12,11.10
2008,08,10,07,13,11.00
2008,08,10,07,14,11.00
2008,08,10,07,15,11.80
2008,08,10,07,16,17.60
2008,08,10,07,17,22.70
2008,08,10,07,18,25.80
2008,08,10,07,19,29.80
2008,08,10,07,20,32.80
2008,08,10,07,21,33.00
2008,08,10,07,22,33.00
2008,08,10,07,23,33.00
2008,08,10,07,24,33.00
2008,08,10,07,25,33.00
2008,08,10,07,26,33.00
2008,08,10,07,27,33.00
2008,08,10,07,28,33.00
2008,08,10,07,29,33.00
2008,08,10,07,30,33.00
2008,08,10,07,31,33.00
2008,08,10,07,32,32.20
2008,08,10,07,33,32.00
2008,08,10,07,34,32.00
2008,08,10,07,35,32.00
2008,08,10,07,36,30.10
2008,08,10,07,37,30.00
2008,08,10,07,38,30.00
2008,08,10,07,39,31.90
2008,08,10,07,40,32.90
2008,08,10,07,41,32.10
2008,08,10,07,42,32.00
2008,08,10,07,43,32.90
2008,08,10,07,44,34.90
2008,08,10,07,45,36.90
2008,08,10,07,46,38.90
2008,08,10,07,47,39.90
2008,08,10,07,48,41.60
2008,08,10,07,49,43.60
2008,08,10,07,50,45.90
2008,08,10,07,51,46.90
2008,08,10,07,52,47.00
2008,08,10,07,53,47.00
2008,08,10,07,54,46.20
2008,08,10,07,55,44.10
2008,08,10,07,56,44.00
2008,08,10,07,57,44.00
2008,08,10,07,58,42.10
2008,08,10,07,59,37.30
2008,08,10,08,00,30.40
2008,08,10,08,01,32.40
2008,08,10,08,02,34.70
2008,08,10,08,03,32.20
2008,08,10,08,04,30.40
2008,08,10,08,05,30.00
2008,08,10,08,06,31.90
2008,08,10,08,07,32.90
2008,08,10,08,08,34.90
2008,08,10,08,09,35.00
2008,08,10,08,10,38.80
2008,08,10,08,11,39.90
2008,08,10,08,12,50.50
2008,08,10,08,13,59.60
2008,08,10,08,14,69.40
2008,08,10,08,15,110.60
2008,08,10,08,16,163.80
2008,08,10,08,17,167.00
2008,08,10,08,18,186.80
2008,08,10,08,19,188.00
2008,08,10,08,20,186.10
2008,08,10,08,21,202.90
2008,08,10,08,22,234.00
2008,08,10,08,23,221.20
2008,08,10,08,24,220.00
2008,08,10,08,25,426.10
2008,08,10,08,26,411.00
2008,08,10,08,27,346.40
2008,08,10,08,28,332.00
2008,08,10,08,29,211.20
2008,08,10,08,30,173.00
2008,08,10,08,31,163.80
2008,08,10,08,32,157.20
2008,08,10,08,33,157.60
2008,08,10,08,34,158.00
2008,08,10,08,35,161.80
2008,08,10,08,36,162.00
2008,08,10,08,37,175.20
2008,08,10,08,38,185.60
2008,08,10,08,39,233.30
2008,08,10,08,40,244.00
2008,08,10,08,41,348.80
2008,08,10,08,42,355.00
2008,08,10,08,43,207.70
2008,08,10,08,44,164.10
2008,08,10,08,45,162.90
2008,08,10,08,46,166.80
2008,08,10,08,47,171.00
2008,08,10,08,48,177.60
2008,08,10,08,49,182.70
2008,08,10,08,50,189.60
2008,08,10,08,51,196.60
2008,08,10,08,52,221.00
2008,08,10,08,53,223.20
2008,08,10,08,54,226.80
2008,08,10,08,55,214.80
2008,08,10,08,56,211.60
2008,08,10,08,57,189.30
2008,08,10,08,58,174.80
2008,08,10,08,59,150.40
2008,08,10,09,00,132.90
2008,08,10,09,01,120.70
2008,08,10,09,02,112.70
2008,08,10,09,03,104.40
2008,08,10,09,04,100.80
2008,08,10,09,05,97.60
2008,08,10,09,06,95.10
2008,08,10,09,07,95.00
2008,08,10,09,08,99.00
2008,08,10,09,09,121.70
2008,08,10,09,10,123.00
2008,08,10,09,11,123.00
2008,08,10,09,12,123.00
2008,08,10,09,13,124.60
2008,08,10,09,14,141.80
2008,08,10,09,15,155.40
2008,08,10,09,16,156.00
2008,08,10,09,17,168.00
2008,08,10,09,18,188.90
2008,08,10,09,19,207.90
2008,08,10,09,20,209.00
2008,08,10,09,21,209.00
2008,08,10,09,22,247.40
2008,08,10,09,23,257.00
2008,08,10,09,24,588.50
2008,08,10,09,25,546.60
2008,08,10,09,26,625.80
2008,08,10,09,27,631.00
2008,08,10,09,28,646.10
2008,08,10,09,29,647.00
2008,08,10,09,30,647.00
2008,08,10,09,31,647.00
2008,08,10,09,32,291.90
2008,08,10,09,33,278.60
2008,08,10,09,34,279.00
2008,08,10,09,35,279.00
2008,08,10,09,36,326.80
2008,08,10,09,37,338.00
2008,08,10,09,38,150.10
2008,08,10,09,39,106.10
2008,08,10,09,40,92.80
2008,08,10,09,41,82.80
2008,08,10,09,42,79.10
2008,08,10,09,43,82.80
2008,08,10,09,44,88.60
2008,08,10,09,45,96.60
2008,08,10,09,46,103.60
2008,08,10,09,47,106.40
2008,08,10,09,48,115.50
2008,08,10,09,49,116.00
2008,08,10,09,50,116.00
2008,08,10,09,51,116.00
2008,08,10,09,52,135.80
2008,08,10,09,53,125.70
2008,08,10,09,54,133.50
2008,08,10,09,55,140.40
2008,08,10,09,56,141.10
2008,08,10,09,57,157.80
2008,08,10,09,58,167.60
2008,08,10,09,59,174.60
2008,08,10,10,00,188.80
2008,08,10,10,01,257.60
2008,08,10,10,02,336.40
2008,08,10,10,03,352.00
2008,08,10,10,04,352.00
2008,08,10,10,05,400.80
2008,08,10,10,06,467.80
2008,08,10,10,07,471.00
2008,08,10,10,08,348.60
2008,08,10,10,09,391.20
2008,08,10,10,10,375.70
2008,08,10,10,11,374.00
2008,08,10,10,12,210.00
2008,08,10,10,13,177.50
2008,08,10,10,14,186.00
2008,08,10,10,15,191.20
2008,08,10,10,16,199.60
2008,08,10,10,17,200.00
2008,08,10,10,18,200.00
2008,08,10,10,19,481.40
2008,08,10,10,20,499.00
2008,08,10,10,21,553.60
2008,08,10,10,22,508.20
2008,08,10,10,23,472.00
2008,08,10,10,24,385.10
2008,08,10,10,25,465.60
2008,08,10,10,26,410.30
2008,08,10,10,27,396.00
2008,08,10,10,28,396.00
2008,08,10,10,29,476.00
2008,08,10,10,30,496.00
2008,08,10,10,31,496.00
2008,08,10,10,32,321.90
2008,08,10,10,33,376.90
2008,08,10,10,34,341.30
2008,08,10,10,35,347.10
2008,08,10,10,36,349.90
2008,08,10,10,37,346.20
2008,08,10,10,38,349.20
2008,08,10,10,39,358.50
2008,08,10,10,40,375.10
2008,08,10,10,41,406.20
2008,08,10,10,42,403.30
2008,08,10,10,43,398.10
2008,08,10,10,44,403.60
2008,08,10,10,45,417.20
2008,08,10,10,46,433.10
2008,08,10,10,47,450.80
2008,08,10,10,48,473.40
2008,08,10,10,49,498.00
2008,08,10,10,50,563.00
2008,08,10,10,51,554.00
2008,08,10,10,52,532.00
2008,08,10,10,53,600.60
2008,08,10,10,54,605.00
2008,08,10,10,55,472.20
2008,08,10,10,56,399.80
2008,08,10,10,57,341.10
2008,08,10,10,58,292.80
2008,08,10,10,59,282.80
2008,08,10,11,00,279.40
2008,08,10,11,01,276.60
2008,08,10,11,02,261.60
2008,08,10,11,03,233.50
2008,08,10,11,04,226.40
2008,08,10,11,05,233.80
2008,08,10,11,06,270.40
2008,08,10,11,07,330.20
2008,08,10,11,08,306.30
2008,08,10,11,09,253.60
2008,08,10,11,10,229.80
2008,08,10,11,11,223.20
2008,08,10,11,12,226.20
2008,08,10,11,13,245.40
2008,08,10,11,14,276.40
2008,08,10,11,15,284.60
2008,08,10,11,16,279.40
2008,08,10,11,17,252.60
2008,08,10,11,18,199.90
2008,08,10,11,19,162.10
2008,08,10,11,20,142.10
2008,08,10,11,21,130.60
2008,08,10,11,22,120.00
2008,08,10,11,23,114.00
2008,08,10,11,24,113.00
2008,08,10,11,25,118.70
2008,08,10,11,26,129.40
2008,08,10,11,27,126.00
2008,08,10,11,28,111.80
2008,08,10,11,29,104.40
2008,08,10,11,30,113.60
2008,08,10,11,31,136.00
2008,08,10,11,32,156.20
2008,08,10,11,33,170.40
2008,08,10,11,34,175.00
2008,08,10,11,35,181.60
2008,08,10,11,36,185.40
2008,08,10,11,37,186.00
2008,08,10,11,38,186.00
2008,08,10,11,39,186.00
2008,08,10,11,40,187.60
2008,08,10,11,41,189.90
2008,08,10,11,42,191.90
2008,08,10,11,43,196.00
2008,08,10,11,44,202.60
2008,08,10,11,45,206.40
2008,08,10,11,46,204.60
2008,08,10,11,47,194.40
2008,08,10,11,48,181.60
2008,08,10,11,49,172.60
2008,08,10,11,50,167.20
2008,08,10,11,51,165.10
2008,08,10,11,52,166.60
2008,08,10,11,53,167.00
2008,08,10,11,54,167.00
2008,08,10,11,55,167.00
2008,08,10,11,56,175.80
2008,08,10,11,57,184.60
2008,08,10,11,58,178.40
2008,08,10,11,59,170.80
2008,08,10,12,00,167.10
2008,08,10,12,01,170.20
2008,08,10,12,02,167.80
2008,08,10,12,03,165.10
2008,08,10,12,04,166.60
2008,08,10,12,05,172.60
2008,08,10,12,06,178.70
2008,08,10,12,07,187.00
2008,08,10,12,08,196.50
2008,08,10,12,09,201.00
2008,08,10,12,10,208.60
2008,08,10,12,11,216.20
2008,08,10,12,12,226.80
2008,08,10,12,13,233.70
2008,08,10,12,14,236.80
2008,08,10,12,15,243.60
2008,08,10,12,16,258.40
2008,08,10,12,17,279.90
2008,08,10,12,18,293.80
2008,08,10,12,19,311.40
2008,08,10,12,20,337.60
2008,08,10,12,21,366.20
2008,08,10,12,22,405.00
2008,08,10,12,23,461.00
2008,08,10,12,24,523.30
2008,08,10,12,25,591.80
2008,08,10,12,26,608.00
2008,08,10,12,27,786.80
2008,08,10,12,28,734.80
2008,08,10,12,29,671.00
2008,08,10,12,30,636.60
2008,08,10,12,31,602.80
2008,08,10,12,32,581.20
2008,08,10,12,33,583.20
2008,08,10,12,34,638.40
2008,08,10,12,35,652.00
2008,08,10,12,36,649.30
2008,08,10,12,37,655.40
2008,08,10,12,38,584.50
2008,08,10,12,39,601.60
2008,08,10,12,40,694.30
2008,08,10,12,41,756.00
2008,08,10,12,42,770.00
2008,08,10,12,43,770.00
2008,08,10,12,44,770.00
2008,08,10,12,45,709.20
2008,08,10,12,46,694.00
2008,08,10,12,47,466.20
2008,08,10,12,48,437.60
2008,08,10,12,49,450.00
2008,08,10,12,50,489.80
2008,08,10,12,51,526.80
2008,08,10,12,52,544.20
2008,08,10,12,53,536.90
2008,08,10,12,54,551.00
2008,08,10,12,55,611.50
2008,08,10,12,56,592.40
2008,08,10,12,57,611.80
2008,08,10,12,58,598.60
2008,08,10,12,59,603.60
2008,08,10,13,00,606.00
2008,08,10,13,01,434.70
2008,08,10,13,02,418.40
2008,08,10,13,03,422.80
2008,08,10,13,04,424.90
2008,08,10,13,05,418.40
2008,08,10,13,06,419.60
2008,08,10,13,07,421.90
2008,08,10,13,08,423.90
2008,08,10,13,09,388.80
2008,08,10,13,10,348.80
2008,08,10,13,11,327.80
2008,08,10,13,12,336.60
2008,08,10,13,13,356.00
2008,08,10,13,14,353.20
2008,08,10,13,15,356.20
2008,08,10,13,16,346.60
2008,08,10,13,17,346.00
2008,08,10,13,18,323.40
2008,08,10,13,19,314.80
2008,08,10,13,20,301.70
2008,08,10,13,21,287.80
2008,08,10,13,22,270.10
2008,08,10,13,23,248.20
2008,08,10,13,24,239.20
2008,08,10,13,25,263.50
2008,08,10,13,26,275.40
2008,08,10,13,27,293.20
2008,08,10,13,28,305.50
2008,08,10,13,29,302.20
2008,08,10,13,30,297.30
2008,08,10,13,31,293.00
2008,08,10,13,32,290.40
2008,08,10,13,33,288.20
2008,08,10,13,34,278.60
2008,08,10,13,35,261.20
2008,08,10,13,36,218.20
2008,08,10,13,37,174.60
2008,08,10,13,38,144.20
2008,08,10,13,39,139.00
2008,08,10,13,40,148.40
2008,08,10,13,41,167.40
2008,08,10,13,42,193.60
2008,08,10,13,43,203.50
2008,08,10,13,44,208.70
2008,08,10,13,45,204.30
2008,08,10,13,46,197.40
2008,08,10,13,47,197.00
2008,08,10,13,48,215.40
2008,08,10,13,49,254.80
2008,08,10,13,50,285.20
2008,08,10,13,51,303.00
2008,08,10,13,52,316.80
2008,08,10,13,53,329.60
2008,08,10,13,54,345.20
2008,08,10,13,55,356.40
2008,08,10,13,56,353.20
2008,08,10,13,57,331.40
2008,08,10,13,58,294.20
2008,08,10,13,59,268.00
2008,08,10,14,00,238.00
2008,08,10,14,01,197.20
2008,08,10,14,02,155.50
2008,08,10,14,03,127.40
2008,08,10,14,04,105.90
2008,08,10,14,05,105.00
2008,08,10,14,06,112.50
2008,08,10,14,07,121.00
2008,08,10,14,08,131.50
2008,08,10,14,09,141.40
2008,08,10,14,10,147.60
2008,08,10,14,11,153.80
2008,08,10,14,12,157.80
2008,08,10,14,13,173.10
2008,08,10,14,14,190.80
2008,08,10,14,15,223.00
2008,08,10,14,16,258.20
2008,08,10,14,17,260.00
2008,08,10,14,18,285.60
2008,08,10,14,19,303.30
2008,08,10,14,20,319.10
2008,08,10,14,21,335.20
2008,08,10,14,22,362.50
2008,08,10,14,23,386.60
2008,08,10,14,24,403.10
2008,08,10,14,25,420.00
2008,08,10,14,26,399.10
2008,08,10,14,27,355.50
2008,08,10,14,28,325.00
2008,08,10,14,29,318.00
2008,08,10,14,30,276.50
2008,08,10,14,31,260.60
2008,08,10,14,32,260.00
2008,08,10,14,33,270.40
2008,08,10,14,34,288.90
2008,08,10,14,35,312.40
2008,08,10,14,36,350.60
2008,08,10,14,37,387.80
2008,08,10,14,38,429.60
2008,08,10,14,39,473.20
2008,08,10,14,40,482.00
2008,08,10,14,41,482.00
2008,08,10,14,42,1227.40
2008,08,10,14,43,1274.00
2008,08,10,14,44,1274.00
2008,08,10,14,45,620.80
2008,08,10,14,46,501.60
2008,08,10,14,47,468.80
2008,08,10,14,48,468.00
2008,08,10,14,49,468.00
2008,08,10,14,50,372.00
2008,08,10,14,51,327.30
2008,08,10,14,52,329.70
2008,08,10,14,53,330.00
2008,08,10,14,54,330.00
2008,08,10,14,55,330.00
2008,08,10,14,56,330.00
2008,08,10,14,57,466.50
2008,08,10,14,58,514.50
2008,08,10,14,59,517.00
2008,08,10,15,00,517.00
2008,08,10,15,01,517.00
2008,08,10,15,02,953.80
2008,08,10,15,03,1039.80
2008,08,10,15,04,1000.10
2008,08,10,15,05,1046.00
2008,08,10,15,06,1058.00
2008,08,10,15,07,1058.00
2008,08,10,15,08,1058.00
2008,08,10,15,09,512.10
2008,08,10,15,10,482.40
2008,08,10,15,11,458.20
2008,08,10,15,12,432.00
2008,08,10,15,13,418.50
2008,08,10,15,14,411.40
2008,08,10,15,15,405.40
2008,08,10,15,16,404.00
2008,08,10,15,17,401.20
2008,08,10,15,18,403.40
2008,08,10,15,19,424.00
2008,08,10,15,20,429.00
2008,08,10,15,21,429.00
2008,08,10,15,22,556.10
2008,08,10,15,23,591.20
2008,08,10,15,24,670.50
2008,08,10,15,25,675.00
2008,08,10,15,26,527.00
2008,08,10,15,27,482.50
2008,08,10,15,28,498.10
2008,08,10,15,29,515.90
2008,08,10,15,30,495.40
2008,08,10,15,31,468.80
2008,08,10,15,32,510.20
2008,08,10,15,33,513.00
2008,08,10,15,34,513.00
2008,08,10,15,35,436.80
2008,08,10,15,36,427.30
2008,08,10,15,37,479.00
2008,08,10,15,38,454.90
2008,08,10,15,39,463.20
2008,08,10,15,40,450.80
2008,08,10,15,41,442.80
2008,08,10,15,42,436.30
2008,08,10,15,43,434.10
2008,08,10,15,44,424.40
2008,08,10,15,45,411.60
2008,08,10,15,46,408.20
2008,08,10,15,47,408.00
2008,08,10,15,48,399.50
2008,08,10,15,49,402.80
2008,08,10,15,50,395.80
2008,08,10,15,51,394.00
2008,08,10,15,52,383.60
2008,08,10,15,53,391.40
2008,08,10,15,54,385.40
2008,08,10,15,55,377.80
2008,08,10,15,56,366.60
2008,08,10,15,57,353.80
2008,08,10,15,58,346.60
2008,08,10,15,59,350.60
2008,08,10,16,00,345.80
2008,08,10,16,01,339.70
2008,08,10,16,02,329.40
2008,08,10,16,03,316.40
2008,08,10,16,04,305.30
2008,08,10,16,05,298.40
2008,08,10,16,06,294.20
2008,08,10,16,07,294.00
2008,08,10,16,08,294.90
2008,08,10,16,09,301.60
2008,08,10,16,10,312.40
2008,08,10,16,11,321.00
2008,08,10,16,12,333.40
2008,08,10,16,13,342.50
2008,08,10,16,14,347.00
2008,08,10,16,15,349.90
2008,08,10,16,16,350.00
2008,08,10,16,17,346.00
2008,08,10,16,18,345.00
2008,08,10,16,19,347.80
2008,08,10,16,20,366.40
2008,08,10,16,21,371.00
2008,08,10,16,22,371.00
2008,08,10,16,23,399.00
2008,08,10,16,24,456.40
2008,08,10,16,25,516.10
2008,08,10,16,26,491.70
2008,08,10,16,27,463.60
2008,08,10,16,28,460.50
2008,08,10,16,29,515.40
2008,08,10,16,30,476.30
2008,08,10,16,31,396.80
2008,08,10,16,32,352.80
2008,08,10,16,33,323.20
2008,08,10,16,34,315.40
2008,08,10,16,35,328.20
2008,08,10,16,36,323.40
2008,08,10,16,37,329.50
2008,08,10,16,38,371.40
2008,08,10,16,39,362.80
2008,08,10,16,40,350.60
2008,08,10,16,41,359.60
2008,08,10,16,42,329.40
2008,08,10,16,43,312.60
2008,08,10,16,44,308.60
2008,08,10,16,45,315.10
2008,08,10,16,46,360.10
2008,08,10,16,47,318.00
2008,08,10,16,48,309.40
2008,08,10,16,49,302.70
2008,08,10,16,50,302.00
2008,08,10,16,51,318.00
2008,08,10,16,52,324.40
2008,08,10,16,53,289.20
2008,08,10,16,54,287.90
2008,08,10,16,55,284.00
2008,08,10,16,56,279.80
2008,08,10,16,57,274.60
2008,08,10,16,58,263.30
2008,08,10,16,59,253.50
2008,08,10,17,00,245.00
2008,08,10,17,01,245.40
2008,08,10,17,02,251.60
2008,08,10,17,03,257.40
2008,08,10,17,04,259.60
2008,08,10,17,05,257.20
2008,08,10,17,06,253.20
2008,08,10,17,07,250.20
2008,08,10,17,08,250.00
2008,08,10,17,09,250.00
2008,08,10,17,10,250.90
2008,08,10,17,11,256.60
2008,08,10,17,12,268.30
2008,08,10,17,13,278.60
2008,08,10,17,14,300.80
2008,08,10,17,15,318.00
2008,08,10,17,16,326.70
2008,08,10,17,17,315.70
2008,08,10,17,18,299.00
2008,08,10,17,19,288.60
2008,08,10,17,20,278.50
2008,08,10,17,21,262.10
2008,08,10,17,22,257.60
2008,08,10,17,23,305.00
2008,08,10,17,24,260.00
2008,08,10,17,25,249.80
2008,08,10,17,26,248.00
2008,08,10,17,27,242.40
2008,08,10,17,28,255.10
2008,08,10,17,29,292.30
2008,08,10,17,30,245.00
2008,08,10,17,31,224.80
2008,08,10,17,32,218.60
2008,08,10,17,33,224.20
2008,08,10,17,34,219.40
2008,08,10,17,35,223.60
2008,08,10,17,36,238.20
2008,08,10,17,37,250.30
2008,08,10,17,38,244.80
2008,08,10,17,39,241.60
2008,08,10,17,40,236.30
2008,08,10,17,41,227.50
2008,08,10,17,42,219.10
2008,08,10,17,43,209.20
2008,08,10,17,44,200.80
2008,08,10,17,45,194.40
2008,08,10,17,46,187.40
2008,08,10,17,47,183.30
2008,08,10,17,48,183.00
2008,08,10,17,49,185.40
2008,08,10,17,50,186.00
2008,08,10,17,51,186.00
2008,08,10,17,52,183.60
2008,08,10,17,53,176.40
2008,08,10,17,54,171.60
2008,08,10,17,55,164.60
2008,08,10,17,56,160.40
2008,08,10,17,57,155.60